www.pogodaiklimat.ru

Погода и климат >> Архив погоды >> Россия >> Магаданская область >> Остров Спафарьева


ПОГОДА на Остров Спафарьева

  • Прогноз погоды на Остров Спафарьева
  • Монитор погоды на Остров Спафарьева
  • Климат города

АРХИВ ПОГОДЫ на Остров Спафарьева

Время (UTC), дата Ветер
(напр.,м/с)
 
Видим.   Явления Облачность Т
(С)
Тd
(С)
f
(%)
Тe
(С)
Тes
(С)
Комфортность P
(гПа)
Po
(гПа)
Тmin
(С)
Tmax
(С)
R
(мм)
R24
(мм)
S
(см)
18 16.10 С 4 50 км ясно -1.5 -7.2 65 -7 -7 1008.2 1001.7
21 16.10 С 3
{10}
50 км 8/8 600 м
[Cb cap]
-1.1 -7.1 64 -6 -6 1009.2 1002.6 -1.9
00 17.10 С 4 50 км 8/3 600 м
[Sc Ci fib]
+0.7 -7.7 53 -4 -3 1009.8 1003.3
03 17.10 В 3
{14}
50 км 6/5 600 м
[Sc Ac trans]
+1.7 -9.3 44 -2 -1 1010.6 1004.1
06 17.10 В 2
{10}
50 км 9/6 600 м
[Sc Ac trans]
+0.4 -9.9 46 -2 -2 1011.7 1005.1
09 17.10 СВ 3 50 км 9/6 600 м
[Sc Ac trans]
+0.3 -9.2 49 -4 -4 1013.3 1006.7 +1.9
12 17.10 В 5
{12}
50 км 3/3 600 м
[Sc]
+0.2 -9.5 48 -5 -5 1014.4 1007.8
15 17.10 В 4
{12}
50 км 3/3 600 м
[Sc]
0.0 -8.0 55 -5 -5 1015.0 1008.4
18 17.10 В 4-11
{12}
50 км 3/3 600 м
[Sc]
0.0 -7.7 56 -5 -5 1015.9 1009.3
21 17.10 СВ 7-11
{16}
50 км 9/3 600 м
[Sc Ci fib]
+0.2 -8.3 53 -6 -6 1017.1 1010.5 -0.3
00 18.10 ЮВ 6-13
{13}
50 км 3/0
[Ci fib]
+1.0 -7.8 52 -5 -4 1018.4 1011.8
03 18.10 ЮВ 7-13
{17}
50 км 8/0
[Ci fib]
+1.6 -8.2 48 -4 -4 1019.0 1012.5
06 18.10 В 5
{16}
50 км 6/0
[Ci fib]
+1.8 -7.8 49 -3 -3 1020.1 1013.5
09 18.10 СВ 2
{11}
50 км 3/0
[Ci fib]
+0.9 -7.6 53 -2 -2 1021.2 1014.6 +1.9
12 18.10 В 8-14
{14}
50 км 3/0
[Ci fib]
+1.0 -7.3 54 -6 -6 1022.1 1015.5
15 18.10 В 5-10
{14}
50 км ясно +0.1 -7.0 59 -5 -5 1022.6 1016.0
18 18.10 СВ 8-12
{14}
50 км ясно -1.8 -7.1 67 -9 -9 1022.8 1016.1
21 18.10 СВ 10-13
{13}
50 км ясно -2.3 -7.2 69 -11 -11 1023.0 1016.3 -2.4
00 19.10 СВ 8-12
{14}
50 км 1/1 600 м
[Sc]
-1.1 -7.3 63 -8 -8 1023.2 1016.6
03 19.10 СВ 5
{13}
50 км 1/0
[Ac trans]
-0.2 -7.4 58 -6 -5 1023.3 1016.6
06 19.10 С 3
{10}
50 км 8/8 600 м
[Sc]
-0.8 -10.2 49 -5 -5 1023.6 1016.9
09 19.10 СВ 4 50 км 3/3 600 м
[Sc]
-2.6 -8.9 62 -8 -8 1023.9 1017.2 +0.1
12 19.10 СВ 5 50 км ясно -2.6 -9.5 59 -9 -9 1024.5 1017.8
15 19.10 СВ 7-10
{10}
50 км ясно -2.6 -8.3 65 -10 -10 1025.1 1018.4
18 19.10 СВ 3
{10}
50 км ясно -3.8 -10.4 60 -9 -9 1026.0 1019.2
21 19.10 СВ 4 50 км ясно -4.5 -11.1 60 -10 -10 1027.0 1020.2 -4.6
00 20.10 С 3 50 км 8/0
[Ci fib]
-2.6 -10.4 55 -7 -6 1027.9 1021.2
03 20.10 СЗ 4 50 км 1/0
[Ci fib]
-1.8 -11.1 49 -7 -6 1028.3 1021.6
06 20.10 С 2 50 км 3/0
[Ci fib]
-1.7 -11.8 46 -5 -5 1028.8 1022.1
09 20.10 С 3 50 км ясно -2.5 -11.5 50 -7 -7 1029.8 1023.1 -4.5
12 20.10 СВ 3 50 км ясно -2.8 -10.1 57 -7 -7 1030.4 1023.6
15 20.10 СВ 5 50 км ясно -2.3 -10.6 53 -8 -8 1030.8 1024.1
18 20.10 СВ 6-10
{10}
50 км ясно -2.5 -8.0 66 -9 -9 1031.4 1024.6
21 20.10 СВ 7-11
{12}
50 км 9/9 1000 м
[Sc]
-2.7 -7.8 68 -10 -10 1031.5 1024.8 -3.9
00 21.10 СВ 5-11
{11}
50 км 9/8 600 м
[Cb cap Ac trans]
-1.4 -7.1 65 -7 -7 1032.1 1025.4
03 21.10 В 5
{11}
50 км 9/8 600 м
[Cb cap Ac trans Ci fib]
+0.7 -6.9 57 -5 -4 1032.3 1025.6
06 21.10 В 6-12
{12}
50 км 9/8 600 м
[Cb cap Ac trans]
+0.5 -4.0 72 -6 -6 1032.1 1025.5
09 21.10 В 7-11
{12}
50 км 8/8 600 м
[Cb cap]
+1.1 -2.3 78 -6 -6 1032.1 1025.4 +1.1
12 21.10 ЮВ 6-11
{12}
50 км 8/8 600 м
[Cb cap]
+1.9 -1.7 77 -4 -4 1031.5 1024.9
15 21.10 В 8-13
{13}
50 км 10/10 600 м
[Cb cap]
+2.3 -0.7 81 -4 -4 1030.4 1023.7
18 21.10 В 10-15
{16}
50 км 10/10 600 м
[Cb cap]
+2.0 -1.1 80 -5 -5 1028.9 1022.3
21 21.10 В 13-18
{18}
50 км 10/10 600 м
[Cb cap]
+1.1 -2.0 80 -7 -7 1026.7 1020.0 +1.1
00 22.10 В 12-17
{19}
50 км 10/10 1000 м
[Cb cap]
+1.8 -1.8 77 -6 -6 1025.0 1018.4
03 22.10 В 15-23
{23}
50 км 10/10 600 м
[Cb cap]
+2.9 -0.2 80 -5 -5 1021.5 1015.0
06 22.10 ЮВ 15-25
{25}
10 км слабый ливневой дождь 10/10 600 м
[Cb cap]
+2.9 -0.4 79 -5 -5 1017.9 1011.4
09 22.10 В 15-27
{28}
50 км {ливн. осадки} 10// 600 м
[Cb cap]
+2.7 -2.0 71 -6 -6 1014.8 1008.3 +3.3 0.0
12 22.10 В 21-27
{34}
1000 м слабый ливневой снег {метель} 10/10 600 м
[Cb cap]
-0.4 -1.1 95 -12 -12 1011.1 1004.5
15 22.10 В 22-32
{33}
1000 м слабый ливневой снег {метель} 10/10 600 м
[Cb cap]
-0.2 -0.8 96 -11 -11 1005.8 999.3
18 22.10 В 22-32
{33}
1000 м слабый ливневой снег {метель} 10/10 600 м
[Cb cap]
-0.2 -0.7 96 -11 -11 1005.9 999.3
21 22.10 В 21-30
{35}
500 м сильная метель ?/? -1.0 -1.4 97 -12 -12 1002.0 995.5 -1.0 10
00 23.10 В 14-26
{33}
500 м сильная метель ?/? -1.5 -1.9 97 -12 -12 1001.9 995.4 -1.5
03 23.10 В 9-18
{27}
500 м ливневой снег {метель} ?/? -1.5 -1.8 98 -10 -10 1001.3 994.7
06 23.10 В 6-11
{19}
1000 м ливневой снег {метель} 10/10 600 м
[Cb cap]
-1.3 -1.9 96 -8 -8 1000.8 994.2
09 23.10 СВ 6-10
{18}
2000 м слабый ливневой снег {метель} 9/9 600 м
[Cb cap]
-1.2 -2.0 94 -8 -8 1000.2 993.7 -1.0 6
12 23.10 СВ 5-14
{14}
50 км {ливн. осадки, метель} 10/10 600 м
[Cb cap]
-0.7 -2.8 86 -7 -7 998.4 991.9
15 23.10 С 6
{14}
50 км 8/8 600 м
[Cb cap]
-1.2 -3.4 85 -8 -8 996.6 990.1

 

Местоположение метеостанции Остров Спафарьева (Магаданская область, Россия): широта 59.15 долгота 149.00 высота над уровнем моря 52 м.

В архиве по умолчанию представлена погода на Остров Спафарьева за последнюю неделю. Архивные данные за месяц целиком и за предыдущие месяцы, начиная с января 2011 года, Вы можете получить, выбрав интересующий диапазон дат из раскрывающегося списка и нажав кнопку "Ввод!".

Внимание! Время в таблицах - всемирное. Для получения местного времени необходимо прибавить поправку, которая на Остров Спафарьева равна 11 ч.

Смотрите также архив погоды в соседних городах и на ближайших метеорологических станциях:

Погода в Талоне (Магаданская область, Россия) (72 км)
Погода в Армани (Магаданская область, Россия) (84 км)
Погода в Магадане (Магаданская область, Россия) (106 км)
Погода в Оле (Магаданская область, Россия) (133 км)
Погода на Мысе Алевина (Магаданская область, Россия) (137 км)
Погода в Палатке (Магаданская область, Россия) (150 км)
Погода в Мадауне (Магаданская область, Россия) (187 км)
Погода в Усть-Омчуге (Магаданская область, Россия) (222 км)
Погода на Мысе Братьев (Магаданская область, Россия) (245 км)
Погода в Талае (Магаданская область, Россия) (286 км)

Пояснения к столбцам:

Ветер - указаны скорость ветра в м/с - средняя за 10 мин, порывы в срок и между сроками (в фигурных скобках) и направление, откуда дует ветер: С - северный, СВ - северо-восточный, В - восточный, ЮВ - юго-восточный, Ю - южный, ЮЗ - юго-западный, З - западный, СЗ - северо-западный.
Видимость - горизонтальная дальность видимости в метрах или километрах. При видимости от 1 до 10 км при отсутствии осадков обычно наблюдается дымка, при ухудшении видимости до 1 км и менее - туман. В сухую погоду видимость может ухудшаться дымом, пылью или мглою.
Явления - указаны атмосферные явления, наблюдавшиеся в срок или в последний час перед сроком; фигурными скобками обозначены явления, наблюдавшиеся между сроками (за 1-3 часа до срока); квадратными скобками обозначены град или гололедные отложения с указанием их диаметра в мм.
Облачность - указаны через наклонную черту общая и нижняя облачность в баллах и высота нижней границы облаков в метрах; квадратными скобками обозначены формы облаков: Ci - перистые, Cs - перисто-слоистые, Cc - перисто-кучевые, Ac - высококучевые, As - высокослоистые, Sc - слоисто-кучевые, Ns - слоисто-дождевые, Cu - кучевые, Cb - кучево-дождевые. Подробнее классификацию облаков см. в Атласе облаков (PDF).
T - Температура воздуха - температура, измеренная на высоте 2 м над землей.
Td - Температура точки росы - температура, при понижении до которой содержащийся в воздухе водяной пар достигнет насыщения.
f - Относительная влажность воздуха - влажноcть воздуха, измеренная на высоте 2 м над землей.
Te - Эффективная температура - температура, которую ощущает одетый по сезону человек в тени. Характеристика душности погоды. При расчете учитывается влияние влажности воздуха и скорости ветра на теплоощущения человека.
Tes - Эффективная температура на солнце - температура, которую ощущает человек, с поправкой на солнечный нагрев. Характеристика знойности погоды. Зависит от высоты солнца над горизонтом, облачности и скорости ветра. Ночью, в пасмурную погоду, а также при ветре 12 м/с и более поправка равна нулю.
P - Атмосферное давление - приведенное к уровню моря атмосферное давление.
Po - Атмосферное давление - измеренное на уровне метеостанции атмосферное давление.
Tmin - Минимальная температура - минимум температуры воздуха на высоте 2 м над землей.
Tmax - Максимальная температура - максимум температуры воздуха на высоте 2 м над землей.
R - Количество осадков - Количество выпавших осадков за период времени, мм. При наведении курсора мыши на число - период времени, за который выпало указанное количество осадков.
R24 - Количество осадков - Количество выпавших осадков за 24 часа, мм.
S - Снежный покров - Высота снежного покрова, см. При наведении курсора мыши на число - состояние снежного покрова и степень покрытия местности в баллах.